Погода в Заводской Слободе

Беларусь     53°47′00″N   30°00′48″E
темп.,
°C
ветер,
м/с
пор.,
м/с
влажн.,
%
обл.,
%
осадки,
мм/ч
давл.,
гПа
погр.,
м
22 сентября, ср
ср2200:00+4ссз5797100 0.6 1015687
03:00+3ссз5897100 1.0 1015560
06:00+3ссз5997100 0.3 1014435
09:00+4ссз5897100 0.6 1014381
12:00+5ссз4896100 0.3 1015487
15:00+5ссз4696100 0.4 1015805
18:00+5ссз4695100 0.9 1015866
21:00+5ссз3696100 2.3 1015872
23 сентября, чт
чт2300:00+5ссз2494100 0.6 1014875
03:00+4ссз3495100 0.9 1014717
06:00+4ссз2397100 1.8 1013626
09:00+3с1397100 2.8 1013508
12:00+4с1287100 0.1 1013312
15:00+5юз2285100 0.1 1013488
18:00+5ю248978 0.0 1011340
21:00+5ююв369499 0.0 1009283
24 сентября, пт
пт2400:00+5ююв61296100 0.0 1006416
03:00+6ююв71597100 1.3 1000561
06:00+7ююв81597100 4.8 995525
09:00+9ююз71295100 12.4 991674
12:00+10зюз7108062 0.7 9931014
15:00+8зюз688499 1.0 994790
18:00+7сз259125 0.4 996330
21:00+6зсз359383 0.4 999114
25 сентября, сб
сб2500:00+8сз41193100 0.1 1002508
03:00+8зсз61291100 0.3 1002751
06:00+8зсз4993100 0.0 1006554
09:00+9зсз488798 0.0 1008502
12:00+11зюз577998 0.0 1009591
15:00+9юз4894100 0.1 1010455
18:00+9юз41197100 0.9 1010521
21:00+11зюз41197100 1.1 1011491
26 сентября, вс
вс2600:00+11з5119535 0.1 1011415
03:00+9зсз51295100 0.1 1013327
06:00+9сз6139386 0.1 1015550
09:00+9ссз51090100 0.1 1017863
12:00+13ссз796412 0.0 10191225
15:00+14ссз78575 0.0 10201520
18:00+12ссз476923 0.0 1021194
21:00+11с4859100 0.0 1023285